Temperature
15 16 16 17 13 10 12 12 11 11 10 10 10 10 10 9 10 11 9 10 10 10 11 11 11 11 11 12 12 12 12 13 13 13 13 13 13 13 13 13 13 13 13 13 14 14 14 14 14
15 15 16 15 11 12 12 11 10 10 10 10 10 9 9 8 8 9 9 9 10 10 10 11 10 11 11 11 12 12 12 12 12 13 13 13 12 12 13 13 13 13 13 13 13 13 13 13 14
15 15 16 10 10 11 12 10 9 9 9 9 8 8 8 8 8 8 9 9 9 10 10 10 10 10 11 11 11 11 12 12 12 12 12 12 12 12 12 12 12 13 13 13 13 13 13 13 13
15 15 13 10 11 10 10 10 8 8 9 9 8 7 7 7 8 8 9 9 9 10 10 10 10 10 10 11 11 11 11 11 12 12 12 12 12 12 12 12 12 12 13 13 13 13 13 13 13
15 14 10 9 10 9 8 9 9 8 8 8 8 6 6 7 7 8 8 9 9 9 10 10 10 10 10 10 10 11 11 11 11 11 12 12 12 12 12 12 12 12 12 12 12 12 13 13 13
14 10 9 9 9 9 8 9 9 8 7 7 7 6 6 7 7 8 8 8 9 9 9 10 10 10 10 10 10 10 10 11 11 11 11 11 12 11 12 12 12 12 12 12 12 12 12 12 13
12 8 9 9 9 9 8 8 8 7 6 7 7 6 6 6 7 7 8 8 8 9 9 9 9 10 10 10 10 10 10 10 10 11 11 11 11 11 11 12 12 12 12 12 12 12 12 12 12
12 7 8 8 8 8 8 8 7 7 7 7 7 6 5 6 7 7 7 8 8 8 9 9 9 9 9 9 9 9 10 10 10 10 10 10 11 11 11 11 11 11 11 11 12 12 12 12 12
12 8 8 8 8 8 7 7 7 7 6 6 6 6 6 6 6 7 7 7 8 8 8 8 8 8 9 9 9 9 9 9 9 10 10 10 10 10 11 11 11 11 11 11 11 11 12 11 11
10 7 8 8 7 7 6 6 6 6 5 5 5 6 6 6 6 7 7 7 8 8 8 8 8 8 8 8 8 9 9 9 9 9 9 9 10 10 10 10 10 10 11 11 11 11 11 11 11
7 7 7 7 7 7 6 6 6 5 4 5 6 6 6 6 6 6 7 7 7 7 7 7 7 7 8 8 8 8 8 8 8 8 9 9 9 9 9 10 10 10 10 10 10 11 11 11 11
5 5 6 6 6 6 6 5 4 5 6 7 7 6 6 6 6 6 6 6 6 6 7 7 7 7 7 7 7 7 8 8 8 8 8 8 8 9 9 9 9 10 10 10 10 10 10 10 10
5 5 5 5 6 5 5 4 4 4 6 6 6 5 6 6 6 5 6 6 6 6 6 6 6 6 7 7 7 7 7 7 7 7 7 8 8 8 8 8 8 9 9 9 9 9 9 10 10
4 4 4 5 5 5 4 4 3 4 5 5 5 5 5 5 5 5 5 5 5 6 6 6 6 6 6 6 6 6 6 7 6 7 7 7 7 7 7 8 8 8 8 8 9 9 9 9 9
5 4 4 4 4 4 4 4 2 4 4 4 4 4 4 4 4 4 5 5 5 5 5 5 5 5 5 6 6 6 6 6 6 6 6 6 6 7 7 7 7 7 7 8 8 8 8 8 8
5 4 5 5 4 4 4 4 3 4 4 3 3 3 3 4 4 4 4 4 4 4 5 5 5 5 5 5 5 5 5 5 5 6 6 6 6 6 6 6 6 7 7 7 7 7 7 8 8
4 4 4 4 3 3 3 3 2 3 2 2 2 2 3 3 3 3 4 4 4 4 4 4 4 4 4 5 5 5 5 5 5 5 5 5 5 5 6 6 6 6 6 6 6 6 7 7 7
4 4 4 4 3 2 2 2 2 2 1 1 1 1 2 2 3 3 3 3 3 3 4 4 4 4 4 4 4 4 4 4 4 4 5 5 5 5 5 5 5 5 5 5 5 6 6 6 6
4 3 3 3 3 2 1 2 2 1 1 0 0 1 1 2 2 2 3 3 3 3 3 3 3 3 3 3 3 4 4 4 4 4 4 4 4 4 4 4 4 5 5 5 5 5 5 5 5
3 3 3 2 2 2 1 1 1 1 0 0 0 0 1 1 1 2 2 2 2 2 2 2 2 3 3 3 3 3 3 3 3 3 3 3 3 3 3 4 4 4 4 4 4 4 4 4 4
3 3 2 2 1 1 0 1 1 1 0 1 1 1 1 1 1 2 1 2 2 2 2 2 2 2 2 2 2 2 2 2 3 3 3 3 3 3 3 3 3 3 3 3 3 3 3 3 3
3 2 2 2 1 0 1 1 2 -0 -1 -0 0 0 1 1 1 1 1 1 2 2 2 2 2 2 2 2 2 2 2 2 2 2 2 2 2 2 2 2 2 3 3 3 2 2 2 2 3
2 2 1 1 0 -1 -1 -0 1 -1 0 0 0 1 1 1 1 1 1 1 1 1 1 1 1 1 1 1 1 1 1 1 1 1 2 2 2 2 2 2 2 2 2 2 2 2 1 2 2
1 1 0 -1 -1 1 -0 -0 1 -0 0 1 0 1 1 1 1 1 1 0 0 1 1 1 1 1 1 1 1 1 1 1 1 1 1 1 1 1 1 1 1 1 1 1 1 1 1 1 1
1 1 1 1 0 1 -1 -1 0 0 -0 -0 -0 1 1 1 1 0 0 -0 -0 -0 0 0 0 0 0 0 0 0 0 0 0 0 0 1 1 1 1 0 0 1 1 1 1 0 0 0 0
-0 1 2 2 1 0 -2 -2 -0 -0 -1 -0 -0 0 0 1 0 0 0 -0 -1 -1 -1 -0 -0 0 -0 -0 -0 -0 -0 -0 -0 -0 -0 -0 -0 -0 0 -0 -0 -0 -0 -0 -0 -0 -0 -0 -0
-0 -1 -0 0 -1 -1 -1 -2 -1 -1 -1 -1 -1 -1 -0 0 0 -0 -0 -0 -1 -1 -1 -1 -1 -0 -0 -1 -1 -1 -1 -1 -1 -1 -1 -1 -1 -1 -1 -1 -1 -1 -1 -1 -1 -1 -1 -1 -1
-1 -2 -2 -0 1 0 -0 -2 -0 1 0 -1 -2 -1 -1 -0 -0 -0 -1 -1 -1 -1 -1 -1 -1 -1 -1 -1 -1 -1 -1 -1 -1 -1 -1 -1 -1 -1 -1 -1 -1 -1 -1 -1 -1 -1 -1 -1 -1
-2 -2 -2 -2 -1 -0 -0 0 -1 -1 -0 -1 -2 -1 -1 -1 -0 -1 -1 -1 -1 -2 -2 -2 -2 -1 -1 -1 -2 -2 -2 -2 -2 -2 -2 -2 -2 -2 -2 -2 -2 -2 -2 -2 -2 -2 -2 -2 -1
-2 -2 -2 -0 -1 -3 -2 0 -0 -2 -2 -2 -2 -1 -1 -1 -1 -1 -1 -2 -2 -2 -2 -2 -2 -2 -2 -2 -2 -2 -2 -2 -2 -2 -2 -3 -3 -3 -3 -3 -3 -3 -3 -3 -3 -3 -2 -2 -2
Wind_Speed
10 5 3 4 6 5 2 3 2 2 1 1 2 4 5 4 2 3 1 4 5 4 5 4 5 7 7 8 10 10 11 11 11 12 12 12 12 11 12 12 12 12 12 13 12 13 13 14 14
4 2 5 5 5 2 4 3 3 2 3 3 3 4 4 2 1 2 2 5 5 5 5 4 6 7 8 9 9 10 10 10 11 11 11 11 11 12 12 12 12 12 12 13 12 12 13 13 13
2 4 5 5 4 6 5 3 3 2 3 3 3 4 2 1 1 0 2 3 5 7 7 6 7 8 8 9 9 10 10 10 11 11 11 11 11 12 12 12 12 12 12 12 12 12 12 12 12
3 5 6 4 3 3 2 1 3 4 3 4 3 3 2 3 1 1 2 4 6 7 9 6 8 9 9 9 10 10 9 9 10 10 10 10 11 11 12 12 12 12 12 11 11 11 11 11 12
5 5 4 1 3 1 1 1 3 3 2 2 3 3 1 3 3 4 4 6 6 7 9 9 9 9 9 10 9 9 10 10 9 9 10 10 10 11 11 11 11 11 11 10 10 10 10 10 11
5 5 4 3 3 2 0 1 3 2 2 2 3 3 2 1 3 3 4 6 7 7 9 9 8 10 10 10 10 10 10 10 9 9 9 10 10 10 10 10 10 10 10 9 9 9 9 9 10
5 4 4 4 3 3 2 1 3 3 2 2 3 4 2 1 0 2 4 6 7 8 9 10 10 9 9 9 10 10 10 10 10 10 10 10 10 10 10 9 9 10 9 9 9 9 8 8 9
5 5 3 3 4 4 2 2 1 3 2 1 3 5 3 3 0 2 4 5 5 7 8 9 10 10 9 9 9 9 10 10 10 11 11 11 10 9 9 9 9 9 9 9 9 9 8 8 8
4 4 3 5 6 4 2 2 1 2 3 1 0 1 1 4 3 4 3 4 4 5 6 7 8 9 10 8 8 8 9 10 10 10 10 10 9 8 8 8 9 9 9 9 9 9 9 8 8
4 4 5 3 3 3 3 3 3 2 1 1 1 1 3 4 4 3 2 2 2 2 3 5 6 7 8 8 7 7 7 8 9 9 9 8 8 8 7 8 8 8 8 8 9 9 9 8 7
3 4 2 0 0 3 3 2 2 5 3 6 5 5 5 4 3 3 2 1 0 1 2 3 4 6 7 7 6 6 6 7 8 8 8 8 8 7 7 7 7 7 7 7 7 8 7 6 6
3 1 1 0 1 2 3 3 2 4 5 4 5 7 6 6 6 5 4 2 1 0 1 1 3 4 5 5 5 6 6 6 6 6 7 7 6 6 6 6 6 6 6 6 6 6 6 6 5
2 1 1 2 3 2 2 2 2 4 4 1 4 5 7 7 5 4 3 2 1 1 1 0 1 2 3 4 4 5 4 4 4 5 6 6 5 5 5 5 5 6 5 5 5 5 5 5 4
2 2 1 2 1 1 1 2 2 6 3 3 5 6 6 6 5 3 3 3 3 2 2 1 0 1 2 3 3 3 3 3 3 4 4 5 4 4 4 4 5 5 5 4 4 4 4 3 3
2 2 3 1 1 1 1 5 6 5 4 4 5 6 5 5 5 5 5 4 4 3 2 2 2 1 2 2 1 2 3 2 3 2 3 3 4 3 3 3 4 4 4 4 4 4 4 3 3
3 2 2 2 1 1 2 9 4 4 5 5 5 6 6 6 6 6 5 4 4 3 3 4 2 1 1 1 1 1 2 2 2 1 2 2 3 3 3 3 3 4 4 3 3 3 2 2 2
3 1 4 4 1 1 4 9 4 3 5 6 6 6 6 6 7 7 6 5 5 5 4 4 3 3 2 1 1 1 1 1 1 1 1 1 2 2 2 2 3 3 4 3 3 2 2 2 2
4 3 4 6 2 1 5 11 8 4 6 8 7 7 7 9 10 7 6 6 4 4 4 4 3 3 2 1 1 1 0 1 1 1 1 1 1 1 1 2 2 3 2 3 2 2 2 2 2
3 3 6 6 2 3 9 14 13 7 7 9 9 9 10 10 7 5 5 4 4 3 4 5 4 4 3 2 2 2 2 1 1 0 0 0 0 0 1 1 2 2 1 1 2 2 2 2 2
2 3 5 5 2 3 8 14 12 8 8 9 11 11 11 9 6 5 5 5 5 5 5 5 5 4 4 3 2 2 2 2 2 2 1 1 0 0 0 1 1 1 1 1 1 2 1 1 2
4 5 5 5 6 3 6 10 6 4 4 5 7 8 8 10 9 8 7 7 6 6 6 6 6 5 5 4 2 1 1 1 1 2 1 1 1 1 1 1 1 0 0 1 1 1 1 1 1
5 3 3 3 3 5 1 7 7 4 5 6 8 7 8 8 7 7 7 6 6 6 5 5 5 6 5 5 4 4 4 4 3 3 2 2 1 2 2 2 1 1 1 1 2 1 1 1 1
4 1 2 3 3 4 2 4 9 2 6 8 8 9 8 7 7 7 7 7 5 4 4 4 4 6 5 5 6 5 4 4 2 2 3 3 2 2 3 2 2 2 1 1 1 1 1 1 2
2 1 1 2 2 4 5 5 8 4 6 6 5 6 7 7 6 6 5 4 4 3 3 3 4 5 5 5 6 6 6 5 4 4 4 3 3 2 3 3 2 2 2 2 2 2 2 2 2
1 3 3 4 2 6 2 4 9 7 6 6 7 7 7 6 6 6 6 5 5 5 5 4 4 5 5 6 6 6 7 7 7 6 6 4 3 3 4 3 3 3 3 3 3 2 3 3 3
3 4 5 5 6 6 2 7 8 6 5 6 6 6 5 5 5 7 7 6 6 6 5 5 5 6 6 6 7 6 5 5 5 6 5 5 5 4 4 4 4 4 4 4 3 3 3 3 4
4 4 3 3 2 5 7 7 9 5 5 5 5 5 6 6 5 6 6 6 6 6 6 5 6 6 6 6 5 5 6 6 6 6 5 5 4 4 5 5 5 5 4 4 4 3 4 4 4
2 5 3 3 3 6 7 6 6 6 6 5 6 6 7 6 5 5 5 5 5 5 4 4 6 6 5 5 5 5 5 6 6 6 6 5 5 5 5 5 5 5 5 5 4 4 4 5 5
4 3 3 3 3 4 6 8 6 7 5 6 7 7 7 6 6 6 5 4 4 4 4 4 5 4 4 5 5 5 5 5 6 6 6 6 5 6 6 6 6 6 6 5 5 5 5 6 6
5 6 7 5 6 5 5 9 4 5 5 5 7 7 6 6 6 5 5 4 3 4 4 4 4 4 5 5 4 5 5 5 5 6 6 5 6 6 7 6 6 6 6 6 6 6 6 6 7
Wind_Direction
342 356 58 56 60 60 210 228 166 127 106 52 64 98 120 124 139 163 304 340 354 354 349 357 53 55 57 60 60 62 63 61 60 60 61 62 62 61 63 64 65 67 70 74 75 77 77 79 80
340 18 53 60 98 156 250 226 186 166 142 109 56 70 88 90 50 57 335 337 3 16 16 15 67 65 63 63 63 64 65 63 61 60 60 61 61 62 64 65 63 64 67 70 72 76 77 78 80
9 47 77 79 127 184 205 189 169 87 88 84 73 49 87 107 57 58 325 341 27 30 27 32 72 69 66 63 63 65 64 64 62 60 59 59 61 63 63 65 64 64 67 69 70 71 75 77 78
67 49 57 83 192 221 219 206 149 121 71 56 95 74 45 20 9 353 20 43 49 36 32 41 72 69 65 65 63 62 63 65 64 61 59 59 59 61 62 63 65 65 65 66 67 69 73 76 75
57 76 73 72 223 250 268 149 135 118 123 70 103 117 87 2 31 53 54 53 57 39 37 42 67 70 66 62 61 63 61 62 64 63 62 60 59 60 61 61 64 65 64 63 65 65 70 76 75
57 71 106 204 225 254 257 147 131 108 119 109 116 129 165 48 51 46 53 57 57 50 44 47 59 67 66 63 59 58 60 59 59 61 63 62 60 62 61 61 63 65 64 64 63 65 65 74 74
107 107 162 184 193 238 212 111 131 140 150 181 151 136 179 300 48 69 55 58 56 53 48 43 48 59 62 61 59 58 57 58 59 59 60 61 62 60 60 59 61 61 60 62 61 65 65 69 71
116 111 131 180 190 229 168 116 106 132 169 114 133 152 205 238 163 77 60 51 53 50 47 42 44 48 51 57 57 58 58 57 58 57 54 56 59 59 58 56 58 59 59 59 60 63 66 68 68
89 92 190 206 194 211 153 131 72 55 103 66 107 189 193 130 113 91 60 37 39 45 39 40 43 44 45 53 56 58 57 55 55 55 53 54 54 57 56 54 56 57 58 56 56 59 62 69 67
83 159 210 203 186 171 157 153 157 119 93 237 314 33 97 119 128 115 94 68 32 28 33 38 43 43 44 45 51 55 57 55 55 53 52 53 53 55 54 54 54 54 55 55 53 56 56 60 60
99 168 177 294 134 141 145 150 164 156 220 222 208 182 154 153 157 154 164 161 176 336 26 36 49 48 48 43 43 48 55 54 52 52 50 53 55 52 51 51 48 47 49 49 48 48 48 53 54
101 64 105 352 45 117 162 162 186 204 225 226 195 169 171 182 186 189 193 205 194 27 11 21 47 55 55 52 47 44 47 48 44 47 51 54 48 42 38 41 39 42 41 41 43 43 39 45 51
106 98 37 45 57 90 121 183 226 246 250 174 149 164 186 196 201 203 196 189 194 235 271 296 53 72 66 63 52 45 42 45 49 54 54 57 52 40 33 32 37 37 36 36 34 34 30 34 40
116 87 26 3 42 30 148 271 250 252 195 157 169 191 201 204 207 207 206 206 215 230 251 224 149 105 88 77 60 51 37 42 55 55 56 62 60 49 38 31 28 29 30 27 26 26 18 14 22
87 57 358 312 226 218 90 287 235 229 166 186 203 208 210 214 213 217 217 216 217 222 242 226 194 131 117 105 83 56 38 44 49 47 68 65 62 57 43 36 26 15 16 25 27 24 24 17 13
62 61 306 284 160 194 168 263 252 189 175 208 217 215 218 227 228 233 229 225 222 217 229 231 208 167 162 141 108 69 45 37 46 55 75 72 63 64 55 38 19 8 14 24 19 16 11 4 355
41 262 259 285 216 169 202 254 264 194 190 224 231 224 225 236 244 244 236 228 226 221 221 226 205 186 188 176 127 92 74 45 25 66 60 63 70 69 57 32 12 24 19 16 14 13 349 340 337
235 236 257 264 272 229 245 260 266 230 223 236 238 236 235 237 240 242 239 233 228 227 222 221 215 199 184 163 127 114 80 14 358 45 53 56 78 66 47 22 15 29 25 11 7 354 347 316 306
177 209 261 274 288 258 256 268 272 250 239 243 242 237 238 243 248 243 235 233 227 228 224 214 213 204 181 179 193 197 223 234 266 255 122 92 32 34 35 15 10 24 23 350 353 347 342 345 340
208 254 268 293 314 273 281 277 272 247 233 235 236 235 237 244 248 240 232 225 223 222 224 221 214 211 197 196 199 203 205 207 236 232 196 167 24 319 357 19 334 6 15 350 350 7 352 337 6
240 229 247 278 321 295 301 292 271 269 239 242 238 235 235 231 232 231 228 228 228 229 223 227 221 220 204 192 185 184 180 212 235 230 209 254 266 262 247 248 278 335 146 248 289 328 325 280 311
253 230 237 266 306 291 326 291 281 282 286 259 247 239 240 238 233 228 225 229 231 234 230 228 226 222 205 185 186 196 205 220 231 233 224 255 261 249 252 244 228 226 223 240 258 329 276 223 244
223 276 249 256 233 289 262 247 284 306 278 267 252 244 246 240 231 228 226 227 234 233 230 230 232 217 201 191 194 196 211 221 219 230 220 226 243 246 245 233 224 214 227 234 256 283 265 239 233
179 53 32 60 89 273 231 211 279 243 245 274 268 255 251 243 235 236 238 238 244 239 230 227 235 218 202 198 200 198 203 212 212 229 227 220 223 235 243 237 229 226 230 234 239 248 244 243 247
92 89 5 339 315 254 196 224 254 255 249 252 271 269 262 250 237 232 228 228 232 231 228 229 236 223 208 203 209 209 205 206 212 222 223 216 221 231 226 237 230 231 237 243 246 237 243 242 235
199 167 177 228 253 280 254 238 254 259 272 273 276 276 270 258 247 237 231 228 231 232 231 233 242 227 212 210 215 211 208 212 219 219 224 216 219 225 224 230 232 239 245 249 249 241 246 245 240
166 203 195 168 255 275 265 275 293 272 289 294 292 291 277 269 263 251 243 235 233 231 230 231 242 227 217 214 212 213 212 217 221 216 221 220 221 227 221 221 228 236 238 239 236 239 244 243 248
176 158 127 166 233 268 279 266 257 278 284 297 299 293 287 284 279 271 255 244 241 238 235 237 239 227 222 215 214 222 219 221 223 215 217 217 223 226 222 224 227 233 235 237 235 244 242 240 248
163 174 182 184 200 214 273 268 229 233 258 275 285 290 289 285 281 277 272 262 252 249 237 245 241 230 225 222 223 223 230 229 216 213 219 217 223 222 223 224 226 231 233 232 233 238 241 243 249
193 194 175 194 233 216 245 270 260 241 271 274 288 299 298 288 285 282 283 282 269 263 260 256 242 233 229 226 225 227 233 226 215 219 224 221 224 225 225 223 225 231 234 232 231 237 241 240 244
Height
1495 1496 1498 1501 1506 1519 1521 1518 1517 1518 1519 1520 1520 1520 1521 1525 1528 1533 1530 1528 1529 1530 1531 1532 1533 1534 1534 1535 1535 1535 1536 1536 1536 1536 1536 1537 1537 1537 1537 1537 1538 1538 1538 1539 1539 1539 1539 1540 1540
1495 1497 1500 1501 1512 1524 1522 1518 1518 1518 1519 1519 1519 1520 1521 1524 1526 1527 1527 1527 1528 1530 1530 1531 1533 1533 1534 1534 1535 1535 1535 1536 1536 1536 1536 1537 1537 1537 1537 1538 1538 1539 1539 1539 1539 1540 1540 1540 1541
1496 1497 1500 1505 1517 1520 1517 1516 1517 1518 1518 1519 1520 1521 1523 1524 1525 1526 1527 1527 1528 1530 1530 1531 1532 1533 1533 1534 1534 1535 1535 1535 1536 1536 1536 1536 1537 1537 1537 1538 1538 1539 1539 1539 1539 1540 1540 1541 1541
1497 1499 1501 1511 1516 1517 1515 1515 1516 1517 1518 1519 1520 1522 1524 1526 1526 1526 1527 1528 1529 1529 1530 1531 1532 1532 1533 1534 1534 1534 1535 1535 1535 1535 1536 1536 1536 1537 1537 1537 1538 1538 1539 1539 1540 1540 1541 1541 1542
1497 1498 1508 1517 1516 1516 1515 1515 1515 1516 1518 1519 1520 1522 1524 1525 1525 1526 1527 1528 1528 1529 1530 1530 1531 1532 1532 1533 1533 1534 1534 1534 1535 1535 1535 1535 1536 1536 1536 1537 1538 1538 1539 1539 1539 1540 1541 1541 1542
1498 1500 1514 1519 1516 1515 1515 1515 1515 1517 1518 1520 1520 1522 1523 1525 1525 1526 1527 1528 1528 1529 1529 1530 1531 1531 1531 1532 1533 1533 1533 1533 1534 1534 1534 1535 1535 1535 1536 1536 1537 1538 1538 1539 1539 1540 1540 1541 1542
1498 1505 1513 1514 1516 1516 1515 1515 1515 1516 1518 1519 1520 1521 1522 1523 1524 1525 1526 1527 1528 1528 1529 1529 1530 1530 1531 1531 1532 1532 1533 1533 1533 1533 1534 1534 1534 1535 1535 1536 1536 1537 1538 1538 1539 1539 1540 1541 1542
1497 1505 1513 1516 1515 1514 1514 1514 1515 1516 1517 1519 1520 1520 1521 1522 1523 1524 1526 1527 1527 1528 1528 1528 1529 1529 1530 1531 1531 1531 1532 1532 1532 1532 1532 1533 1533 1534 1534 1534 1535 1536 1537 1537 1538 1539 1539 1540 1541
1498 1509 1514 1514 1513 1512 1512 1513 1515 1516 1516 1517 1518 1519 1520 1521 1521 1523 1524 1525 1526 1526 1527 1527 1528 1528 1529 1529 1530 1531 1531 1531 1531 1532 1532 1532 1532 1533 1533 1533 1534 1535 1535 1536 1537 1538 1539 1539 1540
1499 1510 1509 1509 1509 1510 1511 1512 1514 1515 1516 1516 1517 1517 1518 1519 1520 1521 1521 1522 1523 1524 1525 1526 1527 1527 1528 1528 1529 1529 1530 1530 1530 1531 1531 1531 1531 1531 1532 1533 1533 1533 1534 1535 1536 1536 1537 1538 1539
1501 1507 1507 1508 1508 1508 1510 1512 1513 1514 1515 1514 1513 1514 1516 1517 1518 1519 1520 1521 1522 1523 1524 1524 1525 1526 1527 1527 1528 1528 1529 1529 1529 1530 1530 1530 1530 1530 1531 1531 1532 1532 1533 1534 1534 1535 1536 1537 1538
1504 1507 1507 1508 1508 1508 1509 1511 1512 1512 1511 1512 1512 1513 1514 1515 1516 1517 1518 1519 1520 1521 1522 1523 1524 1524 1525 1526 1526 1527 1527 1527 1528 1528 1529 1529 1529 1529 1530 1530 1531 1531 1531 1532 1533 1533 1534 1535 1536
1505 1507 1507 1508 1508 1509 1509 1510 1510 1509 1510 1510 1510 1511 1511 1512 1514 1515 1517 1518 1518 1519 1520 1521 1522 1523 1523 1524 1524 1525 1526 1526 1526 1527 1527 1527 1527 1528 1528 1529 1529 1529 1530 1530 1531 1532 1533 1534 1535
1506 1507 1508 1508 1508 1509 1509 1509 1510 1506 1507 1508 1508 1508 1509 1510 1511 1512 1513 1514 1515 1516 1517 1519 1519 1520 1521 1522 1523 1523 1524 1524 1525 1525 1525 1526 1526 1526 1526 1527 1527 1528 1528 1528 1529 1530 1530 1531 1532
1506 1508 1508 1508 1507 1508 1509 1508 1506 1503 1505 1505 1506 1506 1507 1507 1508 1509 1510 1511 1513 1514 1515 1516 1517 1518 1518 1519 1520 1521 1521 1522 1523 1523 1524 1524 1524 1524 1525 1525 1525 1526 1526 1527 1527 1528 1528 1529 1530
1507 1509 1510 1507 1507 1508 1511 1506 1502 1502 1502 1502 1503 1503 1504 1504 1505 1506 1507 1509 1510 1511 1512 1513 1514 1514 1515 1516 1517 1518 1519 1520 1521 1521 1521 1522 1522 1522 1522 1523 1523 1523 1524 1524 1525 1525 1526 1526 1527
1512 1513 1510 1508 1507 1507 1509 1504 1500 1500 1500 1500 1500 1500 1500 1501 1501 1502 1503 1505 1506 1507 1508 1509 1510 1511 1512 1513 1514 1515 1516 1517 1518 1518 1519 1519 1519 1520 1520 1520 1521 1521 1521 1522 1522 1522 1523 1523 1524
1512 1513 1510 1509 1506 1508 1507 1502 1498 1498 1498 1497 1496 1496 1496 1496 1496 1498 1499 1500 1502 1503 1504 1505 1507 1507 1508 1509 1510 1511 1513 1513 1514 1515 1515 1516 1517 1517 1518 1518 1518 1518 1518 1519 1519 1520 1520 1520 1521
1508 1510 1509 1507 1506 1508 1505 1498 1493 1493 1493 1492 1491 1491 1491 1491 1492 1494 1495 1496 1497 1499 1500 1501 1502 1503 1504 1505 1506 1507 1508 1509 1510 1511 1512 1513 1514 1514 1514 1515 1515 1515 1515 1515 1516 1517 1517 1518 1518
1509 1510 1510 1508 1507 1507 1504 1496 1488 1487 1486 1486 1485 1485 1485 1486 1487 1488 1490 1491 1492 1494 1495 1496 1497 1499 1500 1501 1502 1503 1504 1505 1506 1507 1508 1509 1510 1511 1511 1512 1512 1512 1512 1513 1513 1514 1514 1514 1515
1507 1509 1509 1509 1508 1507 1506 1492 1485 1482 1481 1481 1481 1480 1481 1481 1482 1483 1485 1486 1487 1489 1490 1491 1492 1494 1495 1497 1498 1499 1500 1501 1502 1503 1504 1505 1506 1507 1508 1508 1509 1509 1509 1510 1510 1511 1511 1511 1512
1505 1506 1507 1508 1511 1511 1509 1501 1483 1482 1480 1477 1476 1476 1476 1477 1478 1478 1480 1481 1482 1484 1485 1487 1488 1489 1491 1492 1493 1494 1495 1495 1497 1499 1500 1501 1502 1503 1504 1505 1505 1506 1506 1507 1507 1508 1508 1509 1509
1505 1505 1506 1507 1510 1513 1511 1509 1484 1483 1479 1473 1471 1471 1471 1472 1474 1474 1475 1476 1478 1479 1480 1482 1483 1484 1485 1487 1489 1490 1490 1491 1493 1495 1496 1496 1497 1499 1500 1501 1501 1501 1502 1503 1504 1504 1505 1505 1506
1504 1506 1507 1510 1512 1510 1507 1508 1486 1482 1474 1469 1468 1468 1468 1469 1470 1471 1472 1472 1473 1474 1475 1477 1477 1478 1480 1482 1483 1485 1485 1487 1488 1489 1491 1491 1493 1494 1495 1496 1497 1497 1498 1499 1499 1500 1501 1501 1502
1504 1507 1510 1508 1513 1504 1506 1504 1486 1473 1469 1467 1465 1464 1465 1466 1466 1466 1467 1467 1468 1469 1469 1470 1471 1473 1474 1476 1478 1479 1481 1482 1483 1484 1485 1486 1487 1489 1490 1491 1492 1493 1494 1495 1495 1495 1496 1497 1498
1505 1504 1506 1507 1506 1503 1507 1501 1478 1468 1465 1464 1463 1462 1462 1462 1463 1463 1463 1464 1464 1464 1464 1465 1466 1467 1469 1470 1472 1474 1475 1477 1478 1479 1480 1481 1482 1483 1485 1486 1487 1488 1489 1490 1490 1491 1492 1493 1493
1503 1506 1505 1508 1511 1512 1500 1494 1477 1465 1463 1462 1461 1460 1458 1459 1459 1459 1459 1460 1459 1459 1459 1460 1460 1461 1463 1465 1466 1468 1469 1471 1472 1473 1474 1475 1476 1478 1479 1481 1481 1482 1483 1484 1485 1486 1487 1488 1488
1501 1503 1509 1507 1504 1501 1495 1492 1479 1464 1461 1460 1459 1457 1456 1456 1456 1456 1455 1455 1455 1454 1455 1455 1455 1456 1457 1459 1460 1462 1463 1465 1466 1467 1468 1469 1471 1472 1473 1475 1476 1477 1478 1479 1480 1480 1481 1482 1483
1502 1504 1503 1505 1504 1501 1495 1479 1465 1461 1458 1458 1457 1455 1454 1453 1452 1452 1451 1451 1451 1450 1450 1450 1450 1450 1451 1453 1454 1456 1457 1458 1459 1460 1462 1463 1465 1466 1467 1469 1469 1470 1472 1473 1474 1474 1475 1476 1477
1495 1496 1499 1498 1498 1503 1498 1476 1458 1458 1456 1456 1455 1454 1453 1452 1451 1449 1448 1447 1446 1445 1444 1444 1444 1444 1445 1447 1448 1450 1451 1452 1453 1454 1456 1458 1459 1460 1462 1462 1463 1464 1465 1467 1468 1468 1469 1470 1471